This demonstration page uses our WeatherBlox Daily Observations layout. Learn more.

40.92945, -100.16068

Hourly Observations for April 5, 2017

Temp ( °F °C ) Dew Point ( °F °C ) Humidity (%) Winds ( mph kmh ) Pressure ( in mb ) Visibility ( mi km ) Precip ( " mm )
12:15 am 00:15 Clear 44 6.5 35 1.4 70 70 N 15 24 30.06 1018 10 16.0934 0 0
12:35 am 00:35 Clear 43 6.1 35 1.4 72 72 N 15 24 30.06 1018 10 16.0934 0 0
12:55 am 00:55 Clear 43 6 34 1.1 71 71 N 16 26 30.06 1018 10 16.0934 0 0
1:15 am 01:15 Clear 42 5.5 34 1.2 74 74 NNW 17 28 30.06 1018 10 16.0934 0 0
1:35 am 01:35 Clear 42 5.5 34 0.9 73 73 NNW 17 28 30.06 1018 10 16.0934 0 0
1:55 am 01:55 Clear 41 5 33 0.5 73 73 NNW 15 24 30.06 1018 10 16.0934 0 0
2:15 am 02:15 Clear 40 4.7 33 0.4 74 74 NNW 14 22 30.06 1018 10 16.0934 0 0
2:35 am 02:35 Partly Cloudy 40 4.5 32 0.2 74 74 NNW 13 20 30.06 1018 10 16.0934 0 0
2:55 am 02:55 Partly Cloudy 40 4.5 32 0.2 74 74 NNW 14 22 30.06 1018 10 16.0934 0 0
3:15 am 03:15 Mostly Cloudy 40 4.6 32 0.2 73 73 NNW 14 22 30.06 1018 10 16.0934 0 0
3:35 am 03:35 Partly Cloudy 39 4 32 0 75 75 NNW 10 17 30.09 1019 10 16.0934 0 0
3:55 am 03:55 Clear 38 3.5 32 0 78 78 NNW 10 17 30.12 1020 10 16.0934 0 0
4:15 am 04:15 Clear 37 2.8 32 -0.1 81 81 NW 9 15 30.12 1020 10 16.0934 0 0
4:35 am 04:35 Clear 36 2.4 31 -0.3 83 83 WNW 8 13 30.12 1020 10 16.0934 0 0
4:55 am 04:55 Clear 36 2 31 -0.3 85 85 WNW 9 15 30.12 1020 10 16.0934 0 0
5:15 am 05:15 Clear 36 2 32 -0.2 86 86 NW 10 17 30.12 1020 10 16.0934 0 0
5:35 am 05:35 Clear 35 1.8 31 -0.5 85 85 NW 10 17 30.12 1020 10 16.0934 0 0
5:55 am 05:55 Clear 35 1.7 31 -0.7 84 84 NW 10 17 30.12 1020 10 16.0934 0 0
6:15 am 06:15 Clear 35 1.5 30 -1 84 84 WNW 13 20 30.12 1020 10 16.0934 0 0
6:35 am 06:35 Clear 35 1.6 31 -0.8 84 84 WNW 14 22 30.12 1020 10 16.0934 0 0
6:55 am 06:55 Clear 35 1.6 31 -0.8 84 84 NW 15 24 30.12 1020 10 16.0934 0 0
7:15 am 07:15 Clear 35 1.6 31 -0.8 84 84 NW 14 22 30.12 1020 10 16.0934 0 0
7:35 am 07:35 Sunny 35 1.7 31 -0.8 84 84 WNW 13 20 30.12 1020 10 16.0934 0 0
7:55 am 07:55 Sunny 33 0.5 29 -1.5 87 87 WNW 9 15 30.15 1021 10 16.0934 0 0
8:15 am 08:15 Sunny 34 0.9 30 -0.9 88 88 WNW 7 11 30.18 1022 10 16.0934 0 0
8:35 am 08:35 Sunny 38 3.2 32 0 80 80 NW 9 15 30.15 1021 10 16.0934 0 0
8:55 am 08:55 Sunny 41 4.9 33 0.5 73 73 NNW 16 26 30.12 1020 10 16.0934 0 0
9:15 am 09:15 Sunny 43 6.2 33 0.5 67 67 NNW 22 35 30.12 1020 10 16.0934 0 0
9:35 am 09:35 Sunny 44 6.9 33 0.6 65 65 NNW 23 37 30.12 1020 10 16.0934 0 0
9:55 am 09:55 Sunny 45 7.3 33 0.5 62 62 NNW 25 41 30.12 1020 10 16.0934 0 0
10:15 am 10:15 Sunny 46 7.7 33 0.8 62 62 NNW 22 35 30.09 1019 10 16.0934 0 0
10:35 am 10:35 Sunny 47 8.6 34 1.2 60 60 NNW 21 33 30.09 1019 10 16.0934 0 0
10:55 am 10:55 Sunny 49 9.4 34 1.1 56 56 NNW 22 35 30.09 1019 10 16.0934 0 0
11:15 am 11:15 Sunny 50 9.9 34 1.2 55 55 N 18 30 30.09 1019 10 16.0934 0 0
11:35 am 11:35 Sunny 50 10.2 33 0.8 52 52 N 23 37 30.06 1018 10 16.0934 0 0
11:55 am 11:55 Partly Cloudy 51 10.5 33 0.7 51 51 N 21 33 30.03 1017 10 16.0934 0 0
12:15 pm 12:15 Partly Cloudy 52 11 32 0.2 48 48 N 21 33 30.03 1017 10 16.0934 0 0
12:35 pm 12:35 Partly Cloudy 53 11.6 32 -0.1 45 45 N 21 33 30.03 1017 10 16.0934 0 0
12:55 pm 12:55 Partly Cloudy 54 12 32 -0.1 44 44 NNW 18 30 30.03 1017 10 16.0934 0 0
1:15 pm 13:15 Mostly Cloudy 53 11.5 30 -0.9 43 43 N 18 30 30.03 1017 10 16.0934 0 0
1:35 pm 13:35 Partly Cloudy 53 11.7 30 -0.9 42 42 NNW 21 33 30.03 1017 10 16.0934 0 0
1:55 pm 13:55 Sunny 54 12.1 30 -1.1 40 40 N 18 30 30.03 1017 10 16.0934 0 0
2:15 pm 14:15 Partly Cloudy 54 12.1 30 -1.3 40 40 NNW 15 24 30.03 1017 10 16.0934 0 0
2:35 pm 14:35 Partly Cloudy 55 12.8 28 -2 36 36 N 20 31 30.03 1017 10 16.0934 0 0
2:55 pm 14:55 Partly Cloudy 56 13.5 28 -2.2 34 34 N 21 33 30 1016 10 16.0934 0 0
3:15 pm 15:15 Mostly Cloudy 55 12.9 26 -3.3 33 33 NNW 21 33 30.03 1017 10 16.0934 0 0
3:35 pm 15:35 Partly Cloudy 55 12.7 25 -4.1 31 31 NNW 16 26 30.03 1017 10 16.0934 0 0
3:55 pm 15:55 Mostly Cloudy 55 12.7 24 -4.7 30 30 N 14 22 30.03 1017 10 16.0934 0 0
4:15 pm 16:15 Mostly Cloudy 56 13.5 24 -4.2 29 29 NNW 21 33 30 1016 10 16.0934 0 0
4:35 pm 16:35 Partly Cloudy 56 13.3 23 -5.1 28 28 N 21 33 30.03 1017 10 16.0934 0 0
4:55 pm 16:55 Partly Cloudy 55 12.7 22 -5.5 28 28 NNW 18 30 30.03 1017 10 16.0934 0 0
5:15 pm 17:15 Sunny 57 13.8 21 -6.1 25 25 NNW 17 28 30 1016 10 16.0934 0 0
5:35 pm 17:35 Partly Cloudy 57 13.8 23 -5.2 27 27 N 21 33 30 1016 10 16.0934 0 0
5:55 pm 17:55 Partly Cloudy 56 13.4 20 -6.6 25 25 NNW 16 26 30.03 1017 10 16.0934 0 0
6:15 pm 18:15 Sunny 56 13.5 20 -6.4 25 25 N 18 30 30 1016 10 16.0934 0 0
6:35 pm 18:35 Partly Cloudy 56 13.5 21 -6.2 25 25 N 16 26 30 1016 10 16.0934 0 0
6:55 pm 18:55 Sunny 55 13 20 -6.8 25 25 N 16 26 30.03 1017 10 16.0934 0 0
7:15 pm 19:15 Sunny 54 12.3 20 -6.5 27 27 N 16 26 30.03 1017 10 16.0934 0 0
7:35 pm 19:35 Sunny 53 11.6 20 -6.7 27 27 N 12 19 30.03 1017 10 16.0934 0 0
7:55 pm 19:55 Sunny 50 9.8 22 -5.8 33 33 N 9 15 30.06 1018 10 16.0934 0 0
8:15 pm 20:15 Clear 47 8.2 22 -5.8 37 37 NNE 9 15 30.06 1018 10 16.0934 0 0
8:35 pm 20:35 Clear 46 7.6 22 -5.7 39 39 NNE 9 15 30.06 1018 10 16.0934 0 0
8:55 pm 20:55 Mostly Cloudy 45 7 23 -5 42 42 NNE 8 13 30.09 1019 10 16.0934 0 0
9:15 pm 21:15 Cloudy 43 6.3 23 -4.8 45 45 NNE 7 11 30.12 1020 10 16.0934 0 0
9:35 pm 21:35 Mostly Cloudy 42 5.3 24 -4.7 49 49 NNE 6 9 30.12 1020 10 16.0934 0 0
9:55 pm 21:55 Mostly Cloudy 42 5.4 24 -4.7 49 49 NE 9 15 30.15 1021 10 16.0934 0 0
10:15 pm 22:15 Partly Cloudy 40 4.7 25 -3.8 54 54 ENE 8 13 30.15 1021 10 16.0934 0 0
10:35 pm 22:35 Clear 39 4.1 26 -3.5 58 58 E 6 9 30.18 1022 10 16.0934 0 0
10:55 pm 22:55 Mostly Cloudy 40 4.2 27 -3 60 60 Calm 30.18 1022 10 16.0934 0 0
11:15 pm 23:15 Mostly Cloudy 40 4.4 27 -2.6 61 61 Calm 30.18 1022 10 16.0934 0 0
11:35 pm 23:35 Partly Cloudy 40 4.2 28 -2 64 64 SE 3 6 30.18 1022 10 16.0934 0 0
11:55 pm 23:55 Partly Cloudy 39 4 29 -1.9 66 66 Calm 30.18 1022 10 16.0934 0 0

Powered by AerisWeather